Vorticity
nan nan nan nan nan nan nan nan nan nan nan nan nan nan nan nan nan nan nan nan nan nan nan nan nan nan nan nan nan nan nan nan nan nan nan nan nan nan nan nan nan nan nan nan nan nan nan nan nan nan nan nan nan nan nan nan nan nan nan nan nan nan nan nan nan nan nan nan nan
nan 9 8 7 7 8 8 8 9 9 9 8 8 8 8 8 8 8 8 8 8 8 8 8 7 7 6 5 8 9 9 9 9 9 10 11 10 9 9 10 9 8 8 9 10 10 10 9 9 8 7 8 9 9 10 9 8 8 8 8 10 12 14 15 14 15 17 18 nan
nan 9 9 10 9 8 7 8 8 8 8 7 8 8 8 8 8 8 9 8 8 8 7 7 7 7 7 8 9 9 9 8 8 8 9 10 9 8 8 8 7 8 8 10 9 8 7 8 8 8 7 7 6 8 9 9 7 9 12 15 13 11 11 13 14 16 18 18 nan
nan 9 9 9 8 6 6 7 7 7 7 8 8 9 9 8 8 8 8 8 8 8 7 6 6 7 7 9 8 8 7 7 6 7 8 8 8 8 8 7 7 8 9 10 9 8 8 8 8 8 8 7 9 11 10 8 8 10 12 15 12 11 10 10 12 13 13 12 nan
nan 9 8 8 8 8 7 7 7 7 8 8 8 8 8 8 8 8 7 7 7 6 5 4 5 6 7 8 8 8 8 7 8 9 9 8 9 9 9 8 8 9 10 10 9 9 9 9 9 9 9 12 13 12 8 6 9 10 10 11 10 10 10 9 10 10 10 9 nan
nan 9 8 8 9 8 8 7 8 8 8 8 7 6 6 6 6 5 5 6 6 6 7 7 8 8 8 8 8 8 8 9 10 9 8 8 9 9 8 9 9 9 9 8 9 9 10 9 8 8 9 11 11 9 8 9 11 11 9 7 8 9 8 6 8 9 8 4 nan
nan 7 8 8 8 8 8 7 9 9 9 8 6 5 4 4 3 4 5 6 8 9 10 12 11 9 8 8 7 8 8 8 8 8 8 9 8 8 8 9 9 8 7 7 8 9 9 9 8 8 8 9 10 10 10 11 9 8 7 5 6 7 8 9 8 8 6 3 nan
nan 9 9 9 9 8 8 7 8 8 7 6 6 6 6 6 5 6 8 9 9 10 10 11 9 7 6 6 6 7 8 8 8 9 9 9 8 8 8 9 8 8 7 8 8 7 7 9 9 8 8 10 10 9 10 8 6 5 5 5 5 5 6 8 7 5 4 5 nan
nan 11 12 11 10 9 8 8 7 7 6 5 6 7 7 6 7 9 10 10 9 8 8 7 6 6 7 6 7 8 9 10 10 9 9 8 8 8 8 9 8 8 8 9 9 8 9 10 9 8 8 8 6 5 6 7 7 6 7 10 8 5 3 4 3 3 4 8 nan
nan 9 10 11 10 9 9 10 9 8 7 7 8 8 7 7 9 11 11 9 7 7 6 5 6 7 8 9 10 10 10 10 10 9 8 7 7 7 8 7 7 7 8 8 10 11 12 11 8 6 6 6 4 4 5 6 8 8 8 9 7 5 3 2 3 4 7 9 nan
nan 7 8 8 9 9 9 9 10 9 8 8 9 9 10 11 11 10 8 7 6 6 6 6 6 8 9 10 10 10 9 9 8 8 8 7 7 7 7 6 6 7 7 7 9 11 12 9 7 6 5 3 6 7 8 6 8 8 7 4 4 5 6 4 5 8 11 11 nan
nan 9 9 8 9 9 9 9 9 9 9 8 9 10 11 12 10 9 8 6 6 8 9 8 9 9 10 10 9 9 9 8 7 7 7 7 8 8 7 7 7 7 8 9 9 10 9 7 6 6 6 4 6 7 6 5 6 7 8 5 6 7 8 8 8 9 9 9 nan
nan 10 9 9 10 9 9 8 8 8 9 9 10 10 10 10 9 9 9 7 8 8 9 9 10 10 10 8 8 8 8 8 7 7 7 7 8 8 8 9 8 9 9 11 10 7 5 5 5 6 6 6 4 3 2 4 6 7 7 6 6 6 7 8 9 8 6 5 nan
nan 9 9 10 10 9 8 7 8 8 9 9 10 10 9 9 10 9 8 8 8 8 8 10 10 10 9 7 7 6 6 6 7 7 7 7 8 8 9 9 9 9 10 10 8 6 5 4 5 6 6 6 4 3 4 7 7 7 7 7 7 7 7 8 9 9 9 8 nan
nan 10 9 9 8 7 7 7 9 9 9 9 9 9 9 9 9 9 8 8 9 10 9 9 8 9 9 8 7 7 7 7 7 8 8 9 9 9 9 9 9 9 8 6 6 7 7 6 7 7 7 6 6 7 8 9 8 8 8 8 8 8 8 8 8 10 10 10 nan
nan 9 8 8 6 6 6 7 8 8 8 8 8 8 8 8 9 8 8 8 10 9 8 6 6 7 8 8 8 9 9 9 10 10 10 10 10 10 9 8 8 8 7 6 6 7 7 8 8 8 7 6 7 8 9 9 9 9 8 8 9 9 8 8 8 9 10 11 nan
nan 7 7 6 6 6 6 7 6 6 6 6 7 8 8 8 8 7 7 8 8 6 5 5 6 6 6 7 10 11 11 10 10 10 10 9 9 9 9 8 8 8 8 8 7 7 7 7 7 7 8 9 9 10 10 10 10 10 10 9 9 9 8 8 9 9 10 9 nan
nan 7 7 6 6 7 7 7 5 5 6 7 8 9 8 7 6 7 8 9 7 6 5 7 7 7 6 7 8 9 9 9 8 8 8 8 9 9 9 9 9 9 9 9 8 8 8 7 7 7 8 10 11 11 11 11 11 10 10 10 9 9 8 9 9 9 8 7 nan
nan 7 7 7 8 8 8 8 7 8 8 9 9 8 7 7 6 7 7 8 8 7 7 8 8 8 7 8 7 7 7 9 8 8 8 9 10 10 9 9 9 9 9 8 9 9 8 8 8 7 8 9 10 10 10 10 10 9 9 10 9 9 9 9 9 8 7 7 nan
nan 8 9 8 9 9 9 9 9 10 9 9 8 7 7 8 8 7 7 7 8 9 9 8 8 7 8 8 8 7 8 9 9 9 9 10 9 9 9 10 10 11 11 10 9 9 8 8 8 9 9 10 10 10 10 11 10 9 8 10 10 10 9 9 9 8 8 9 nan
nan 10 10 9 10 9 9 10 9 9 9 8 8 8 9 9 9 9 8 8 8 9 9 9 8 8 8 8 9 9 9 8 9 9 10 10 10 10 11 12 12 12 11 10 9 8 8 8 9 10 11 12 12 11 11 10 10 9 9 8 8 8 8 8 9 10 11 11 nan
nan 10 10 10 9 8 8 9 9 9 8 9 9 9 9 9 9 9 9 10 9 9 9 10 10 9 9 8 9 9 9 7 8 9 10 10 11 12 12 13 12 11 10 11 11 11 12 12 12 12 13 15 14 12 11 9 9 11 11 9 7 8 8 10 11 12 13 13 nan
nan 9 9 11 10 9 9 10 10 9 9 9 9 9 9 9 9 9 9 9 8 9 10 11 11 10 9 9 9 8 8 7 8 9 10 10 10 11 12 13 12 12 12 14 13 12 12 15 18 19 18 17 16 15 14 12 12 13 13 12 11 11 12 12 11 11 11 11 nan
nan 8 8 9 9 9 10 10 9 9 9 9 9 9 9 9 9 9 9 8 8 8 9 9 8 9 10 10 10 10 9 9 9 10 11 11 11 11 12 12 12 13 14 12 3 -2 -3 2 10 16 19 18 17 16 15 14 12 12 13 14 14 14 13 11 8 7 7 8 nan
nan 9 8 7 8 8 9 9 8 9 9 9 9 9 9 9 9 8 8 8 8 9 8 7 8 9 10 11 11 12 12 12 12 11 11 11 10 9 10 11 11 13 11 3 -7 -10 -9 -8 -5 0 7 13 14 15 15 16 14 13 12 13 12 10 8 7 7 6 6 7 nan
nan 9 9 8 8 8 9 9 9 10 9 9 9 9 9 9 9 8 7 8 8 9 9 11 10 9 10 12 11 11 12 13 11 10 9 8 8 8 8 8 10 10 6 -3 -5 -2 1 0 -4 -5 -2 6 10 14 17 19 18 16 14 12 9 7 5 6 8 10 10 11 nan
nan 9 9 9 9 9 9 10 10 9 9 9 8 9 9 8 7 6 7 8 9 10 12 12 11 12 15 15 12 11 10 9 8 9 9 8 7 6 7 9 9 7 0 -7 -4 2 6 9 7 5 3 3 8 11 13 13 14 15 14 12 9 8 8 10 14 16 16 15 nan
nan 8 8 9 9 9 10 10 9 9 8 8 8 8 8 7 6 6 8 8 9 11 13 14 14 16 16 12 9 8 8 7 8 10 10 9 8 8 9 9 7 2 -5 -8 -1 5 8 10 11 10 8 4 10 13 14 12 12 13 12 12 12 13 15 17 19 20 20 19 nan
nan 8 9 9 9 9 9 9 9 8 9 9 8 7 7 7 7 8 8 8 9 11 12 13 12 10 7 3 5 7 9 11 11 10 8 7 9 10 11 9 7 3 -1 -0 4 8 10 10 11 10 9 8 10 12 14 13 12 12 12 13 13 14 15 16 15 16 17 18 nan
nan 10 9 9 9 9 9 8 8 8 9 8 7 7 7 8 8 9 9 11 12 11 10 8 5 2 1 4 7 9 10 11 10 8 7 8 9 10 11 11 9 6 4 4 7 8 9 9 9 9 8 11 12 13 12 10 10 11 13 13 12 12 12 13 12 11 9 9 nan
nan 10 9 8 8 8 8 8 8 8 8 6 6 7 8 8 9 10 11 12 11 10 8 7 5 5 6 8 9 8 8 8 8 8 10 11 12 13 13 11 8 5 2 2 5 7 7 8 8 8 9 13 18 17 12 9 9 10 11 9 9 10 11 11 11 8 5 3 nan
nan 9 8 8 8 8 7 7 7 7 7 7 8 8 9 10 11 11 11 10 9 9 10 10 10 10 10 10 9 8 8 8 8 9 10 12 13 12 10 10 10 6 1 1 4 6 8 8 9 10 10 14 19 17 13 10 12 13 12 9 9 8 6 4 5 5 6 6 nan
nan 8 8 7 7 7 7 8 8 8 8 8 9 9 10 12 11 10 10 9 10 10 11 10 10 11 11 10 10 10 11 12 11 10 11 11 10 8 8 12 14 8 1 0 4 7 9 10 10 11 11 16 24 23 19 14 14 14 12 11 10 9 7 4 4 6 8 9 nan
nan 8 7 7 7 8 8 8 8 8 8 9 9 10 11 11 9 9 9 9 9 10 11 11 11 11 11 10 10 10 11 10 10 10 11 11 10 8 8 11 9 0 -4 -1 5 8 10 11 11 11 13 23 31 28 21 16 13 10 8 7 7 8 9 10 10 11 12 13 nan
nan 7 7 7 7 7 8 8 8 8 8 9 9 10 11 10 9 9 9 8 9 10 11 11 11 10 10 10 10 9 8 7 8 9 10 10 9 9 9 8 2 -4 -4 2 7 10 11 12 12 12 17 30 34 28 21 19 17 13 9 8 9 10 10 11 13 14 15 16 nan
nan 7 7 7 8 7 8 8 8 8 8 8 9 10 11 10 11 11 9 10 12 12 11 11 10 10 9 9 10 9 9 10 10 11 11 10 10 10 10 10 5 3 4 8 10 11 12 12 12 14 22 33 30 22 18 19 18 16 14 12 13 13 14 16 16 15 14 15 nan
nan 8 8 8 8 8 8 9 9 8 8 9 10 11 11 11 12 12 11 12 14 13 11 10 9 9 9 9 9 9 9 9 10 11 11 11 11 11 11 11 10 10 10 10 10 10 11 11 11 15 23 29 22 16 15 16 14 14 15 16 17 16 17 19 21 20 18 14 nan
nan 8 8 8 8 8 9 9 8 8 9 10 11 11 11 12 13 12 11 12 13 11 10 9 8 8 8 8 8 8 9 9 10 11 12 12 12 10 8 9 11 11 9 7 7 8 9 10 11 14 19 20 17 16 16 15 12 11 13 15 17 18 17 17 19 21 21 16 nan
nan 9 9 9 9 9 9 8 8 9 10 11 11 11 11 12 12 11 11 12 11 10 9 7 7 7 6 7 9 10 11 11 13 13 13 13 9 5 4 9 11 10 6 3 4 7 9 10 11 13 18 21 22 20 17 14 12 11 12 13 15 18 18 16 15 17 20 20 nan
nan 9 9 9 9 9 9 8 9 10 11 11 10 11 12 12 11 10 11 11 9 8 8 8 7 7 7 9 12 13 13 13 14 13 11 9 6 5 8 14 13 10 7 6 7 9 10 11 12 14 20 25 23 19 16 14 13 12 11 11 12 15 18 17 15 14 17 21 nan
nan nan nan nan nan nan nan nan nan nan nan nan nan nan nan nan nan nan nan nan nan nan nan nan nan nan nan nan nan nan nan nan nan nan nan nan nan nan nan nan nan nan nan nan nan nan nan nan nan nan nan nan nan nan nan nan nan nan nan nan nan nan nan nan nan nan nan nan nan
CAPE
nan nan nan nan nan nan nan nan nan nan nan nan nan nan nan nan nan nan nan nan nan nan nan nan nan nan nan nan nan nan nan nan nan nan nan nan nan nan nan nan nan nan nan nan nan nan nan nan nan nan nan 2 2 2 2 3 5 6 6 10 11 11 11 14 14 14 15 17 18
nan nan nan nan nan nan nan nan nan nan nan nan nan nan nan nan nan nan nan nan nan nan nan nan nan nan nan nan nan nan nan nan nan nan nan nan nan nan nan nan nan nan nan nan nan nan nan nan nan nan nan 2 1 0 0 nan 1 4 4 6 7 13 13 17 19 19 20 21 22
nan nan nan nan nan nan nan nan nan nan nan nan nan nan nan nan nan nan nan nan nan nan nan nan nan nan nan nan nan nan nan nan nan nan nan nan nan nan nan nan nan nan nan nan nan nan nan nan nan nan nan 0 0 0 0 nan nan 2 2 3 4 10 10 13 16 16 23 24 25
nan nan nan nan nan nan nan nan nan nan nan nan nan nan nan nan nan nan nan nan nan nan nan nan nan nan nan nan nan nan nan nan nan nan nan nan nan nan nan nan nan nan nan nan nan nan nan nan nan nan 0 0 1 1 1 2 3 4 4 4 5 10 10 12 14 14 20 22 25
nan nan nan nan nan nan nan nan nan nan nan nan nan nan nan nan nan nan nan nan nan nan nan nan nan nan nan nan nan nan nan nan nan nan nan nan nan nan nan nan nan nan nan nan nan nan nan nan nan nan nan nan 0 1 1 2 4 6 6 9 10 14 14 16 16 16 20 24 24
nan nan nan nan nan nan nan nan nan nan nan nan nan nan nan nan nan nan nan nan nan nan nan nan nan nan nan nan nan nan nan nan nan nan nan nan nan nan nan nan nan nan nan nan nan nan nan nan nan nan nan nan nan 0 0 4 7 13 13 13 15 15 15 16 17 17 19 27 24
nan nan nan nan nan nan nan nan nan nan nan nan nan nan nan nan nan nan nan nan nan nan nan nan nan nan nan nan nan nan nan nan nan nan nan nan nan nan nan nan nan nan nan nan nan nan nan nan nan nan nan nan nan 0 0 4 9 16 16 19 19 13 13 15 17 17 20 25 27
nan nan nan nan nan nan nan nan nan nan nan nan nan nan nan nan nan nan nan nan nan nan nan nan nan nan nan nan nan nan nan nan nan nan nan nan nan nan nan nan nan nan nan nan nan nan nan nan nan nan nan nan 0 1 1 4 9 15 15 20 16 16 16 15 21 21 24 27 26
nan nan nan nan nan nan nan nan nan nan nan nan nan nan nan nan nan nan nan nan nan nan nan nan nan nan nan nan nan nan nan nan nan nan nan nan nan nan nan nan nan nan nan nan nan nan nan nan nan nan nan nan nan 0 0 5 8 14 14 18 16 14 14 16 18 18 20 25 28
nan nan nan nan nan nan nan nan nan nan nan nan nan nan nan nan nan nan nan nan nan nan nan nan nan nan nan nan nan nan nan nan nan nan nan nan nan nan nan nan nan nan nan nan nan nan nan nan nan nan nan nan nan 0 0 4 9 14 14 19 20 14 14 17 23 23 22 27 28
nan nan nan nan nan nan nan nan nan nan nan nan nan nan nan nan nan nan nan nan nan nan nan nan nan nan nan nan nan nan nan nan nan nan nan nan nan nan nan nan nan nan nan nan nan nan nan nan nan nan nan nan nan 0 0 2 6 10 10 14 18 20 20 19 20 20 23 28 29
nan nan nan nan nan nan nan nan nan nan nan nan nan nan nan nan nan nan nan nan nan nan nan nan nan nan nan nan nan nan nan nan nan nan nan nan nan nan nan nan nan nan nan nan nan nan nan nan nan nan nan nan nan nan nan 0 2 5 5 10 16 19 19 17 19 19 22 28 32
nan nan nan nan nan nan nan nan nan nan nan nan nan nan nan nan nan nan nan nan nan nan nan nan nan nan nan nan nan nan nan nan nan nan nan nan nan nan nan nan nan nan nan nan nan nan nan nan nan nan nan nan nan nan nan nan 0 2 2 6 10 11 11 16 17 17 20 29 31
nan nan nan nan nan nan nan nan nan nan nan nan nan nan nan nan nan nan nan nan nan nan nan nan nan nan nan nan nan nan nan nan nan nan nan nan nan nan nan nan nan nan nan nan nan nan nan nan nan nan nan nan nan nan nan nan 0 1 1 2 5 7 7 11 14 14 18 24 33
nan nan nan nan nan nan nan nan nan nan nan nan nan nan nan nan nan nan nan nan nan nan nan nan nan nan nan nan nan nan nan nan nan nan nan nan nan nan nan nan nan nan nan nan nan nan nan nan nan nan nan nan nan nan nan 0 0 1 1 2 3 5 5 8 12 12 18 23 29
nan nan nan nan nan nan nan nan nan nan nan nan nan nan nan nan nan nan nan nan nan nan nan nan nan nan nan nan nan nan nan nan nan nan nan nan nan nan nan nan nan nan nan nan nan nan nan nan nan nan nan nan nan nan nan nan 0 1 1 2 4 5 5 7 12 12 20 24 28
nan nan nan nan nan nan nan nan nan nan nan nan nan nan nan nan nan nan nan nan nan nan nan nan nan nan nan nan nan nan nan nan nan nan nan nan nan nan nan nan nan nan nan nan nan nan nan nan nan nan nan nan nan 0 0 0 0 1 1 3 5 5 5 10 14 14 18 28 38
nan nan nan nan nan nan nan nan nan nan nan nan nan nan nan nan nan nan nan nan nan nan nan nan nan nan nan nan nan nan nan nan nan nan nan nan nan nan nan nan nan nan nan nan nan nan nan nan nan nan nan 0 0 0 0 1 2 2 2 3 4 5 5 6 6 6 10 15 22
nan nan nan nan nan nan nan nan nan nan nan nan nan nan nan nan nan nan nan nan nan nan nan nan nan nan nan nan nan nan nan nan nan nan nan nan nan nan nan nan nan nan nan nan nan nan nan nan nan nan nan nan 0 1 1 2 2 2 2 2 3 3 3 3 3 3 8 13 16
nan nan nan nan nan nan nan nan nan nan nan nan nan nan nan nan nan nan nan nan nan nan nan nan nan nan nan nan nan nan nan nan nan nan nan nan nan nan nan nan nan nan nan nan nan nan nan nan nan nan nan 0 1 2 2 2 2 2 2 2 1 2 2 2 4 4 7 12 18
nan nan nan nan nan nan nan nan nan nan nan nan nan nan nan nan nan nan nan nan nan nan nan nan nan nan nan nan nan nan nan nan nan nan nan nan nan nan nan nan nan nan nan nan nan nan nan nan nan nan 1 2 2 3 3 2 2 0 0 1 nan 0 0 2 2 2 5 10 17
nan nan nan nan nan nan nan nan nan nan nan nan nan nan nan nan nan nan nan nan nan nan nan nan nan nan nan nan nan nan nan nan nan nan nan nan nan nan nan nan nan nan nan nan nan nan nan nan 1 1 1 1 2 3 3 4 2 nan nan nan nan nan nan nan 0 0 6 14 25
nan nan nan nan nan nan nan nan nan nan nan nan nan nan nan nan nan nan nan nan nan nan nan nan nan nan nan nan nan nan nan nan nan nan nan nan nan nan nan nan nan nan nan nan nan nan nan 1 1 1 1 2 3 4 4 3 4 2 2 0 0 0 0 1 2 2 7 14 25
nan nan nan nan nan nan nan nan nan nan nan nan nan nan nan nan nan nan nan nan nan nan nan nan nan nan nan nan nan nan nan nan nan nan nan nan nan nan nan nan nan nan nan nan 1 1 12 11 5 5 8 9 8 8 8 9 11 9 9 5 3 3 3 3 6 6 7 10 16
nan nan nan nan nan nan nan nan nan nan nan nan nan nan nan nan nan nan nan nan nan nan nan nan nan nan nan nan nan nan nan nan nan nan nan nan nan nan nan nan nan nan nan 1 45 45 69 67 44 44 25 24 21 18 18 20 18 16 16 12 9 7 7 5 5 5 5 7 9
nan nan nan nan nan nan nan nan nan nan nan nan nan nan nan nan nan nan nan nan nan nan nan nan nan nan nan nan nan nan nan nan nan nan nan nan nan nan nan nan nan nan nan 15 57 57 83 108 121 121 83 44 38 34 34 27 22 15 15 11 13 9 9 8 7 7 8 10 3
nan nan nan nan nan nan nan nan nan nan nan nan nan nan nan nan nan nan nan nan nan nan nan nan nan nan nan nan nan nan nan nan nan nan nan nan nan nan nan nan nan 0 0 31 77 77 102 131 158 158 156 81 44 25 25 24 22 12 12 15 13 13 13 16 17 17 18 14 5
nan nan nan nan nan nan nan nan nan nan nan nan nan nan nan nan nan nan nan nan nan nan nan nan nan nan nan nan nan nan nan nan nan nan nan nan nan nan nan nan 1 10 10 60 102 102 125 155 178 178 199 150 51 31 31 30 30 27 27 28 21 25 25 28 26 26 25 12 8
nan nan nan nan nan nan nan nan nan nan nan nan nan nan nan nan nan nan nan nan nan nan nan nan nan nan nan nan nan nan nan nan nan nan nan nan nan 0 0 1 1 28 28 93 124 124 145 166 187 187 207 195 77 46 46 41 37 35 35 29 27 32 32 36 30 30 20 11 11
nan nan nan nan nan nan nan nan nan nan nan nan nan nan nan nan nan nan nan nan nan nan nan nan nan nan nan nan nan nan nan nan nan nan nan nan 1 0 0 4 4 34 34 113 144 144 157 169 180 180 186 190 108 44 44 35 35 39 39 32 34 33 33 31 22 22 17 16 17
nan nan nan nan nan nan nan nan nan nan nan nan nan nan nan nan nan nan nan nan nan nan nan nan nan nan nan nan nan nan nan nan nan 0 0 1 2 4 4 4 7 44 44 125 151 151 157 159 157 157 161 168 111 41 41 32 31 33 33 37 36 31 31 27 20 20 17 17 21
nan nan nan nan nan nan nan nan nan nan nan nan nan nan nan nan nan nan nan nan nan nan nan nan nan nan nan nan nan nan nan nan nan 0 0 0 3 5 5 10 11 41 41 121 144 144 148 152 147 147 152 160 120 46 46 33 29 34 34 36 37 35 35 28 21 21 18 17 18
nan nan nan nan nan nan nan nan nan nan nan nan nan nan nan nan nan nan nan nan nan nan nan nan nan nan nan nan nan nan nan nan 1 4 4 9 9 8 8 14 8 48 48 112 136 136 142 144 147 147 153 162 105 43 43 29 26 31 31 30 29 22 22 19 15 15 13 11 11
nan nan nan nan nan nan nan nan nan nan nan nan nan nan nan nan nan nan nan nan nan nan nan nan nan nan nan nan nan nan nan 2 1 1 1 5 6 9 9 8 3 62 62 115 133 133 140 145 146 146 145 155 77 28 28 23 23 23 23 23 18 14 14 12 10 10 9 8 6
nan nan nan nan nan nan nan nan nan nan nan nan nan nan nan nan nan nan nan nan nan nan nan nan nan nan nan nan nan nan 0 2 1 2 2 3 5 9 9 6 2 69 69 113 125 125 131 131 133 133 135 122 45 20 20 17 17 17 17 15 11 9 9 8 5 5 5 3 3
nan nan nan nan nan nan nan nan nan nan nan nan nan nan nan nan nan nan nan nan nan nan nan nan nan nan nan nan 1 1 3 1 1 2 2 3 4 4 4 2 2 63 63 104 111 111 112 111 110 110 121 77 24 13 13 11 10 9 9 8 8 3 3 3 3 3 2 2 2
nan nan nan nan nan nan nan nan nan nan nan nan nan nan nan nan nan nan nan nan nan nan nan nan nan nan nan nan 1 1 1 1 0 0 0 5 6 4 4 4 0 36 36 85 95 95 93 92 96 96 100 47 10 8 8 6 5 3 3 4 3 1 1 1 1 1 1 1 0
nan nan nan nan nan nan nan nan nan nan nan nan nan nan nan nan nan nan nan nan nan nan nan nan nan nan nan 0 0 0 0 0 1 2 2 3 5 5 5 3 nan 11 11 61 81 81 83 82 87 87 75 20 8 5 5 3 2 1 1 1 0 nan nan nan 0 0 0 0 4
nan nan nan nan nan nan nan nan nan nan nan nan nan nan nan nan nan nan nan nan nan nan nan nan nan nan nan nan nan nan nan 0 5 5 5 3 5 10 10 7 1 4 4 48 69 69 70 71 73 73 66 28 5 3 3 1 1 0 0 0 nan nan nan nan nan nan nan nan 13
nan nan nan nan nan nan nan nan nan nan nan nan nan nan nan nan nan nan nan nan nan nan nan nan nan nan nan 2 nan nan nan 0 1 8 8 5 11 34 34 16 1 4 4 38 57 57 56 59 60 60 61 26 2 1 1 0 nan nan nan nan nan nan nan nan nan nan nan nan 16
nan nan nan nan nan nan nan nan nan nan nan nan nan nan nan nan nan nan nan nan nan nan nan nan nan nan nan 3 1 1 nan nan 2 3 3 9 17 40 40 13 0 nan nan 16 38 38 47 50 52 52 58 16 2 1 1 nan 0 nan nan nan nan nan nan nan nan nan nan nan nan